"Pseudo-MPEC" for P211BEs

Created 2020 Jul 7 17:07:08 UT using Find_Orb

Click here for an explanation of pseudo-MPECs

 
 Astrometry: 
     P211BEs  C2020 06 177aOdUECmmv@G8/#4Y_D3*,0W]$Astrometryk_cHp!cy?sDfk8a8F52
     P211BEs  C2020 06 17Ppo*Ubqredacted;9o'J,`kI;$[;C.99u+Qclick\w(,heremFjcF52
     P211BEs  C2020 06 17ao2ifor@O6cR.%1it.xgHMrycJexplanation[I=\:sE!hWDbOMxF52

Station data:
(F52) Pan-STARRS 2, Haleakala  (N20.707384 W156.255910)  US/Hawaii. 1.8-m
   Ritchey-Chrétien + CCD.

Orbital elements:  P211BEs
   Perihelion 2020 Jun 30.939464 +/- 42 TT = 22:32:49 (JD 2459031.439464)
Epoch 2020 Jun 17.0 TT = JDT 2459017.5   Earth MOID: 0.2730   Ma: 0.0498
M 355.85992450 +/- 26               (J2000 ecliptic)          AutoNEOCP
n   0.29700392 +/- 0.312            Peri.  185.30951 +/- 60
a   2.22481851 +/- 1.56             Node    85.85939 +/- 58
e   0.4205387 +/- 0.255             Incl.    5.45145 +/- 4.0
P   3.32                   H 22.8   G  0.15   U 12.0  SR
q 1.28919611 +/- 0.447    Q 3.16044091 +/- 54.9
From 3 observations 2020 June 17 (51.3 min); mean residual 0".18
Residuals in arcseconds: 
200617 F52  .01+  .12+    200617 F52  .00   .36-    200617 F52  .05+  .22+    

Ephemerides (geocentric):
Date (UTC) HH   RA              Dec         delta   r     elong  mag " sig PA
---- -- -- --  -------------   -----------  ------ ------ -----  --- ---- ---
2020 07 07 17  16 17 54.451   -25 23 48.04  .33071 1.2909 141.1 22.2  36d 175
2020 07 07 18  16 17 58.991   -25 24 39.35  .33080 1.2909 141.1 22.2  36d 175
2020 07 07 19  16 18 03.537   -25 25 30.63  .33089 1.2910 141.1 22.2  36d 175
2020 07 07 20  16 18 08.089   -25 26 21.88  .33099 1.2910 141.1 22.2  36d 175
2020 07 07 21  16 18 12.646   -25 27 13.10  .33108 1.2910 141.0 22.2  36d 175
2020 07 07 22  16 18 17.209   -25 28 04.29  .33118 1.2910 141.0 22.2  36d 175
2020 07 07 23  16 18 21.777   -25 28 55.45  .33127 1.2910 141.0 22.2  36d 175
2020 07 08 00  16 18 26.351   -25 29 46.58  .33137 1.2911 141.0 22.2  36d 175
2020 07 08 01  16 18 30.931   -25 30 37.68  .33147 1.2911 140.9 22.2  36d 175
2020 07 08 02  16 18 35.517   -25 31 28.75  .33156 1.2911 140.9 22.2  36d 175
2020 07 08 03  16 18 40.108   -25 32 19.79  .33166 1.2911 140.9 22.2  36d 175
2020 07 08 04  16 18 44.704   -25 33 10.80  .33175 1.2911 140.9 22.2  36d 175
2020 07 08 05  16 18 49.307   -25 34 01.78  .33185 1.2912 140.9 22.2  36d 175
2020 07 08 06  16 18 53.915   -25 34 52.73  .33195 1.2912 140.8 22.2  36d 175
2020 07 08 07  16 18 58.529   -25 35 43.64  .33204 1.2912 140.8 22.2  36d 175
2020 07 08 08  16 19 03.148   -25 36 34.53  .33214 1.2912 140.8 22.2  36d 175
2020 07 08 09  16 19 07.773   -25 37 25.38  .33224 1.2913 140.8 22.2  36d 175
2020 07 08 10  16 19 12.403   -25 38 16.21  .33233 1.2913 140.8 22.3  36d 175
2020 07 08 11  16 19 17.040   -25 39 07.00  .33243 1.2913 140.7 22.3  36d 175
2020 07 08 12  16 19 21.681   -25 39 57.76  .33253 1.2913 140.7 22.3  36d 175
2020 07 08 13  16 19 26.329   -25 40 48.49  .33263 1.2914 140.7 22.3  36d 175
2020 07 08 14  16 19 30.982   -25 41 39.19  .33273 1.2914 140.7 22.3  36d 175
2020 07 08 15  16 19 35.641   -25 42 29.86  .33282 1.2914 140.7 22.3  36d 175
2020 07 08 16  16 19 40.305   -25 43 20.49  .33292 1.2914 140.6 22.3  36d 175
2020 07 08 17  16 19 44.975   -25 44 11.10  .33302 1.2915 140.6 22.3  36d 175
2020 07 08 18  16 19 49.650   -25 45 01.67  .33312 1.2915 140.6 22.3  37d 175
2020 07 08 19  16 19 54.331   -25 45 52.21  .33322 1.2915 140.6 22.3  37d 175
2020 07 08 20  16 19 59.018   -25 46 42.72  .33332 1.2915 140.5 22.3  37d 175
2020 07 08 21  16 20 03.710   -25 47 33.19  .33341 1.2915 140.5 22.3  37d 175
2020 07 08 22  16 20 08.408   -25 48 23.64  .33351 1.2916 140.5 22.3  37d 175
2020 07 08 23  16 20 13.112   -25 49 14.05  .33361 1.2916 140.5 22.3  37d 175
2020 07 09 00  16 20 17.821   -25 50 04.43  .33371 1.2916 140.5 22.3  37d 175
2020 07 09 01  16 20 22.535   -25 50 54.78  .33381 1.2916 140.4 22.3  37d 175
2020 07 09 02  16 20 27.255   -25 51 45.10  .33391 1.2917 140.4 22.3  37d 175
2020 07 09 03  16 20 31.981   -25 52 35.38  .33401 1.2917 140.4 22.3  37d 175
2020 07 09 04  16 20 36.713   -25 53 25.63  .33411 1.2917 140.4 22.3  37d 175
2020 07 09 05  16 20 41.449   -25 54 15.85  .33421 1.2918 140.4 22.3  37d 175
2020 07 09 06  16 20 46.192   -25 55 06.03  .33431 1.2918 140.3 22.3  37d 175
2020 07 09 07  16 20 50.940   -25 55 56.19  .33441 1.2918 140.3 22.3  37d 175
2020 07 09 08  16 20 55.693   -25 56 46.31  .33452 1.2918 140.3 22.3  37d 175
2020 07 09 09  16 21 00.453   -25 57 36.40  .33462 1.2919 140.3 22.3  37d 175
2020 07 09 10  16 21 05.217   -25 58 26.45  .33472 1.2919 140.3 22.3  37d 175
2020 07 09 11  16 21 09.987   -25 59 16.47  .33482 1.2919 140.2 22.3  37d 175
2020 07 09 12  16 21 14.763   -26 00 06.46  .33492 1.2919 140.2 22.3  37d 175
2020 07 09 13  16 21 19.544   -26 00 56.42  .33502 1.2920 140.2 22.3  37d 175
2020 07 09 14  16 21 24.331   -26 01 46.34  .33512 1.2920 140.2 22.3  37d 175
2020 07 09 15  16 21 29.124   -26 02 36.23  .33523 1.2920 140.2 22.3  37d 175
2020 07 09 16  16 21 33.922   -26 03 26.08  .33533 1.2920 140.1 22.3  37d 175